Jefferson, NC

5:58 PM EDT on September 19, 2017 (GMT -0400)
Ashe County

Weather History for KGEV - March, 2013

Change the Weather History Date:

Saturday, March 16, 2013

  Actual Average Record
Temperature  
Mean Temperature 60 °F -  
Max Temperature 67 °F 52 °F 70 °F (2016)
Min Temperature 53 °F 29 °F 5 °F (1993)
Degree Days  
Heating Degree Days 5    
Growing Degree Days 10 (Base 50)    
Moisture  
Dew Point 39 °F    
Average Humidity 50    
Maximum Humidity 75    
Minimum Humidity 34    
Precipitation  
Precipitation 0.03 in - - ()
Sea Level Pressure  
Sea Level Pressure 29.83 in    
Wind  
Wind Speed 13 mph (West)    
Max Wind Speed 26 mph    
Max Gust Speed 37 mph    
Visibility 10 miles    
Events Rain    
Averages and records for this station are not official NWS values.
T = Trace of Precipitation, MM = Missing Value Source: NWS Daily Summary

Daily Weather History Graph

Daily Weather History Graph

Search for Another Location

Airport or City:

Trip Planner

Search our weather history database for the weather conditions in past years. The results will help you decide how hot, cold, wet, or windy it might be!

Date:

Astronomy

Mar. 16, 2013 Rise Set
Actual Time 7:34 AM EDT 7:34 PM EDT
Civil Twilight 7:09 AM EDT 7:59 PM EDT
Nautical Twilight 6:39 AM EDT 8:29 PM EDT
Astronomical Twilight 6:08 AM EDT 9:00 PM EDT
Moon 10:11 AM EDT (3/16) No Moon Set
Length of Visible Light 12h 50m
Length of Day
11h 59m
Waxing Crescent, 23% of the Moon is Illuminated
Mar 16
Waxing Crescent
Mar 19
First Quarter
Mar 27
Full
Apr 3
Last Quarter
Apr 10
New

Hourly Weather History & Observations

Time (EDT) Temp. Dew Point Humidity Pressure Visibility Wind Dir Wind Speed Gust Speed Precip Events Conditions
12:15 AM 53.2 °F 34.7 °F 49% 29.90 in 10.0 mi SW 4.6 mph 23.0 mph N/A   Clear
12:35 AM 53.8 °F 35.1 °F 49% 29.89 in 10.0 mi WSW 8.1 mph 17.3 mph N/A   Mostly Cloudy
12:55 AM 53.8 °F 35.2 °F 50% 29.88 in 10.0 mi West 8.1 mph 17.3 mph N/A   Scattered Clouds
1:15 AM 53.6 °F 35.6 °F 51% 29.88 in 10.0 mi West 12.7 mph 17.3 mph N/A   Scattered Clouds
1:35 AM 53.8 °F 36.5 °F 52% 29.88 in 10.0 mi West 10.4 mph 20.7 mph N/A   Scattered Clouds
2:15 AM 53.8 °F 37.2 °F 54% 29.87 in 10.0 mi West 12.7 mph 23.0 mph N/A   Overcast
2:35 AM 53.6 °F 37.4 °F 54% 29.86 in 10.0 mi West 15.0 mph 21.9 mph N/A   Mostly Cloudy
2:55 AM 53.6 °F 37.6 °F 55% 29.86 in 10.0 mi West 16.1 mph 23.0 mph N/A   Overcast
3:15 AM 54.3 °F 37.6 °F 53% 29.85 in 10.0 mi West 15.0 mph 21.9 mph N/A   Overcast
3:35 AM 54.7 °F 37.4 °F 52% 29.84 in 10.0 mi West 18.4 mph 26.5 mph N/A   Light Drizzle
4:15 AM 54.7 °F 36.9 °F 51% 29.82 in 10.0 mi West 17.3 mph 26.5 mph N/A   Clear
4:35 AM 55.4 °F 36.9 °F 50% 29.81 in 10.0 mi West 21.9 mph 28.8 mph N/A   Scattered Clouds
4:55 AM 55.2 °F 36.9 °F 50% 29.81 in 10.0 mi WSW 21.9 mph 29.9 mph N/A   Scattered Clouds
5:35 AM 54.9 °F 37.6 °F 52% 29.83 in 10.0 mi West 18.4 mph 32.2 mph N/A Rain Light Rain
6:15 AM 54.0 °F 39.0 °F 57% 29.83 in 10.0 mi West 20.7 mph 33.4 mph N/A   Drizzle
6:55 AM 54.9 °F 38.7 °F 54% 29.83 in 10.0 mi West 13.8 mph 25.3 mph N/A   Overcast
7:15 AM 54.9 °F 38.3 °F 54% 29.83 in 10.0 mi West 15.0 mph 20.7 mph N/A   Mostly Cloudy
7:35 AM 54.9 °F 37.4 °F 52% 29.83 in 10.0 mi WSW 16.1 mph 31.1 mph N/A   Mostly Cloudy
8:15 AM 54.1 °F 38.1 °F 55% 29.83 in 10.0 mi West 15.0 mph 23.0 mph N/A   Scattered Clouds
8:35 AM 54.7 °F 37.0 °F 51% 29.83 in 10.0 mi West 13.8 mph 24.2 mph N/A   Clear
9:15 AM 54.7 °F 36.5 °F 50% 29.84 in 10.0 mi West 18.4 mph 27.6 mph N/A   Clear
9:35 AM 56.3 °F 36.7 °F 48% 29.84 in 10.0 mi West 17.3 mph 26.5 mph N/A   Clear
9:55 AM 57.2 °F 36.7 °F 46% 29.84 in 10.0 mi West 19.6 mph 28.8 mph N/A   Clear
10:15 AM 57.7 °F 37.0 °F 46% 29.84 in 10.0 mi West 15.0 mph 29.9 mph N/A   Clear
10:35 AM 58.3 °F 37.0 °F 45% 29.83 in 10.0 mi West 18.4 mph 27.6 mph N/A   Clear
10:55 AM 59.0 °F 37.2 °F 44% 29.83 in 10.0 mi West 16.1 mph 29.9 mph N/A   Clear
11:15 AM 59.5 °F 37.2 °F 43% 29.83 in 10.0 mi WSW 18.4 mph 27.6 mph N/A   Scattered Clouds
11:35 AM 60.4 °F 37.4 °F 42% 29.83 in 10.0 mi West 13.8 mph 28.8 mph N/A   Scattered Clouds
11:55 AM 60.4 °F 37.4 °F 42% 29.82 in 10.0 mi West 17.3 mph 24.2 mph N/A   Scattered Clouds
12:15 PM 61.5 °F 37.4 °F 41% 29.82 in 10.0 mi WSW 13.8 mph 23.0 mph N/A   Scattered Clouds
12:35 PM 62.4 °F 37.6 °F 40% 29.82 in 10.0 mi WSW 12.7 mph 27.6 mph N/A   Scattered Clouds
12:55 PM 63.3 °F 37.8 °F 39% 29.82 in 10.0 mi West 17.3 mph 27.6 mph N/A   Scattered Clouds
1:15 PM 63.7 °F 38.3 °F 39% 29.81 in 10.0 mi West 19.6 mph 27.6 mph N/A   Clear
1:35 PM 63.7 °F 38.5 °F 39% 29.80 in 10.0 mi West 17.3 mph 28.8 mph N/A   Clear
1:55 PM 64.2 °F 38.8 °F 39% 29.81 in 10.0 mi WSW 15.0 mph 28.8 mph N/A   Scattered Clouds
2:15 PM 65.7 °F 39.2 °F 38% 29.80 in 10.0 mi WSW 13.8 mph 20.7 mph N/A   Scattered Clouds
2:35 PM 65.5 °F 39.0 °F 38% 29.80 in 10.0 mi West 12.7 mph 25.3 mph N/A   Scattered Clouds
2:55 PM 65.5 °F 38.5 °F 37% 29.79 in 10.0 mi West 13.8 mph 25.3 mph N/A   Scattered Clouds
3:15 PM 66.4 °F 39.2 °F 37% 29.77 in 10.0 mi SW 9.2 mph 17.3 mph N/A   Mostly Cloudy
3:35 PM 66.4 °F 38.7 °F 36% 29.78 in 10.0 mi West 13.8 mph 34.5 mph N/A   Mostly Cloudy
3:55 PM 66.2 °F 38.5 °F 36% 29.77 in 10.0 mi West 12.7 mph 34.5 mph N/A   Scattered Clouds
4:15 PM 67.1 °F 38.3 °F 35% 29.77 in 10.0 mi West 16.1 mph 25.3 mph N/A   Scattered Clouds
4:35 PM 67.1 °F 38.3 °F 35% 29.77 in 10.0 mi West 21.9 mph 29.9 mph N/A   Scattered Clouds
4:55 PM 67.5 °F 38.3 °F 34% 29.77 in 10.0 mi West 13.8 mph 28.8 mph N/A   Scattered Clouds
5:15 PM 66.0 °F 38.5 °F 36% 29.76 in 10.0 mi West 16.1 mph 25.3 mph N/A   Scattered Clouds
5:35 PM 65.5 °F 38.5 °F 37% 29.75 in 10.0 mi West 19.6 mph 35.7 mph N/A   Scattered Clouds
6:15 PM 65.3 °F 37.8 °F 36% 29.76 in 10.0 mi West 26.5 mph 36.8 mph N/A   Clear
6:35 PM 64.8 °F 39.6 °F 40% 29.79 in 5.0 mi WNW 13.8 mph 23.0 mph N/A Rain Light Rain
6:55 PM 61.9 °F 43.2 °F 50% 29.82 in 10.0 mi NNW 17.3 mph 28.8 mph N/A Rain Light Rain
7:15 PM 57.0 °F 46.2 °F 67% 29.84 in 5.0 mi WNW 20.7 mph 28.8 mph 0.01 in Rain Rain
7:35 PM 56.1 °F 46.8 °F 71% 29.84 in 10.0 mi WNW 15.0 mph 25.3 mph 0.02 in   Overcast
7:55 PM 55.8 °F 46.6 °F 71% 29.86 in 10.0 mi WNW 11.5 mph 27.6 mph 0.02 in   Mostly Cloudy
8:15 PM 54.9 °F 46.8 °F 74% 29.86 in 10.0 mi WNW 10.4 mph 18.4 mph 0.01 in   Scattered Clouds
8:35 PM 54.7 °F 46.9 °F 75% 29.87 in 10.0 mi NW 4.6 mph 19.6 mph 0.01 in   Light Drizzle
9:15 PM 55.4 °F 46.6 °F 72% 29.87 in 10.0 mi WNW 11.5 mph - N/A   Scattered Clouds
9:35 PM 55.8 °F 46.2 °F 70% 29.87 in 10.0 mi West 15.0 mph 18.4 mph N/A   Scattered Clouds
10:15 PM 56.3 °F 45.7 °F 68% 29.89 in 10.0 mi West 13.8 mph 18.4 mph N/A   Clear
10:35 PM 56.7 °F 45.0 °F 65% 29.88 in 10.0 mi WNW 12.7 mph 25.3 mph N/A   Scattered Clouds
10:55 PM 56.5 °F 45.0 °F 65% 29.89 in 10.0 mi WNW 15.0 mph 20.7 mph N/A   Clear
11:15 PM 56.3 °F 44.6 °F 65% 29.90 in 10.0 mi West 6.9 mph 21.9 mph N/A   Clear
11:35 PM 55.9 °F 44.8 °F 66% 29.90 in 10.0 mi West 10.4 mph - N/A   Clear
11:55 PM 55.9 °F 44.6 °F 66% 29.91 in 10.0 mi West 8.1 mph - N/A   Clear